When you browse on this site, cookies collect data to enhance your experience and personalize the content and advertising you see.
Visit our Privacy Policy to learn more. By continuing to use the site, you agree to this use of cookies and data.
  • în România
  • Lista ţărilor
  • Pe 7 zile
  • Temperatura apei
  • Hartă satelitară
  • Meteo pe hartă
  • Widget-uri
  • user-avatar
    Intrare

    Meteo pe oră la Milochow

    Astăzi, 22 Februarie, Vineri

    Timp Temperatura Precipitaţii Vânt Presiune Umiditate
    00:00 +5°C° 0.9 mm 5 m/s 746 mmHg 91%
    01:00 +5°C° 0 mm 3 m/s 746 mmHg 92%
    02:00 +5°C° 0.8 mm 4 m/s 746 mmHg 93%
    03:00 +5°C° 0.8 mm 4 m/s 746 mmHg 94%
    04:00 +5°C° 0.8 mm 5 m/s 746 mmHg 95%
    05:00 +3°C° 0.3 mm 5 m/s 747 mmHg 93%
    06:00 +2°C° 0.3 mm 6 m/s 748 mmHg 91%
    07:00 +1°C° 0.3 mm 6 m/s 749 mmHg 89%
    08:00 -1°C° 0.1 mm 6 m/s 750 mmHg 85%
    09:00 -2°C° 0.1 mm 6 m/s 752 mmHg 81%
    10:00 -3°C° 0.1 mm 6 m/s 753 mmHg 76%
    11:00 -2°C° 0 mm 6 m/s 754 mmHg 69%
    12:00 -2°C° 0 mm 6 m/s 754 mmHg 61%
    13:00 -1°C° 0 mm 6 m/s 755 mmHg 54%
    14:00 -2°C° 0 mm 6 m/s 756 mmHg 52%
    15:00 -1°C° 0 mm 5 m/s 756 mmHg 51%
    16:00 -1°C° 0 mm 5 m/s 757 mmHg 50%
    17:00 -2°C° 0 mm 4 m/s 758 mmHg 53%
    18:00 -3°C° 0 mm 4 m/s 758 mmHg 56%
    19:00 -4°C° 0 mm 3 m/s 759 mmHg 60%
    20:00 -4°C° 0 mm 3 m/s 760 mmHg 59%
    21:00 -5°C° 0 mm 3 m/s 760 mmHg 59%
    22:00 -4°C° 0 mm 2 m/s 761 mmHg 59%
    23:00 -4°C° 0 mm 2 m/s 761 mmHg 57%

    Mâine, 23 Februarie, Sâmbătă

    Timp Temperatura Precipitaţii Vânt Presiune Umiditate
    00:00 -4°C° 0 mm 2 m/s 761 mmHg 55%
    01:00 -4°C° 0 mm 2 m/s 761 mmHg 53%
    02:00 -4°C° 0 mm 2 m/s 761 mmHg 52%
    03:00 -2°C° 0 mm 1 m/s 761 mmHg 51%
    04:00 -2°C° 0 mm 1 m/s 761 mmHg 50%
    05:00 -3°C° 0 mm 1 m/s 761 mmHg 49%
    06:00 -3°C° 0 mm 1 m/s 762 mmHg 48%
    07:00 -3°C° 0 mm 1 m/s 762 mmHg 48%
    08:00 -2°C° 0 mm 1 m/s 762 mmHg 42%
    09:00 -1°C° 0 mm 1 m/s 762 mmHg 37%
    10:00 -2°C° 0 mm 2 m/s 762 mmHg 32%
    11:00 -1°C° 0 mm 2 m/s 762 mmHg 29%
    12:00 -1°C° 0 mm 2 m/s 762 mmHg 27%
    13:00 +1°C° 0 mm 2 m/s 762 mmHg 24%
    14:00 +1°C° 0 mm 2 m/s 761 mmHg 26%
    15:00 +1°C° 0 mm 2 m/s 761 mmHg 27%
    16:00 +1°C° 0 mm 2 m/s 761 mmHg 28%
    17:00 -1°C° 0 mm 2 m/s 760 mmHg 32%
    18:00 -2°C° 0 mm 2 m/s 760 mmHg 36%
    19:00 -1°C° 0 mm 1 m/s 760 mmHg 39%
    20:00 -1°C° 0 mm 1 m/s 760 mmHg 39%
    21:00 -1°C° 0 mm 1 m/s 760 mmHg 39%
    22:00 -1°C° 0 mm 1 m/s 760 mmHg 39%
    23:00 -1°C° 0 mm 1 m/s 760 mmHg 38%

    Poimâine, 24 Februarie, Duminică

    Timp Temperatura Precipitaţii Vânt Presiune Umiditate
    00:00 -1°C° 0 mm 1 m/s 760 mmHg 36%
    01:00 0°C° 0 mm 1 m/s 760 mmHg 35%
    02:00 0°C° 0 mm 1 m/s 760 mmHg 34%
    03:00 0°C° 0 mm 1 m/s 759 mmHg 33%
    04:00 0°C° 0 mm 1 m/s 759 mmHg 32%
    05:00 0°C° 0 mm 1 m/s 759 mmHg 32%
    06:00 0°C° 0 mm 1 m/s 759 mmHg 31%
    07:00 0°C° 0 mm 1 m/s 759 mmHg 30%
    08:00 +2°C° 0 mm 1 m/s 759 mmHg 28%
    09:00 +3°C° 0 mm 1 m/s 759 mmHg 25%
    10:00 +5°C° 0 mm 1 m/s 760 mmHg 22%
    11:00 +6°C° 0 mm 1 m/s 759 mmHg 22%
    12:00 +7°C° 0 mm 1 m/s 759 mmHg 22%
    13:00 +7°C° 0 mm 2 m/s 759 mmHg 22%
    14:00 +8°C° 0 mm 1 m/s 759 mmHg 29%
    15:00 +7°C° 0 mm 1 m/s 759 mmHg 35%
    16:00 +7°C° 0 mm 1 m/s 759 mmHg 42%
    17:00 +6°C° 0 mm 1 m/s 759 mmHg 44%
    18:00 +4°C° 0 mm 1 m/s 759 mmHg 46%
    19:00 +3°C° 0 mm 1 m/s 759 mmHg 48%
    20:00 +3°C° 0 mm 1 m/s 759 mmHg 50%
    21:00 +3°C° 0 mm 1 m/s 759 mmHg 51%
    22:00 +3°C° 0 mm 1 m/s 759 mmHg 52%
    23:00 +3°C° 0 mm 1 m/s 759 mmHg 52%

    25 Februarie, Luni

    Timp Temperatura Precipitaţii Vânt Presiune Umiditate
    00:00 +3°C° 0 mm 1 m/s 759 mmHg 53%
    01:00 +2°C° 0 mm 2 m/s 760 mmHg 53%
    02:00 +2°C° 0 mm 2 m/s 759 mmHg 54%
    03:00 +2°C° 0 mm 2 m/s 759 mmHg 55%
    04:00 +1°C° 0 mm 2 m/s 759 mmHg 55%
    05:00 +1°C° 0 mm 2 m/s 759 mmHg 56%
    06:00 +1°C° 0 mm 2 m/s 759 mmHg 56%
    07:00 +1°C° 0 mm 2 m/s 759 mmHg 56%
    08:00 +3°C° 0 mm 2 m/s 759 mmHg 53%
    09:00 +4°C° 0 mm 3 m/s 759 mmHg 50%
    10:00 +5°C° 0 mm 3 m/s 759 mmHg 47%
    11:00 +7°C° 0 mm 3 m/s 759 mmHg 47%
    12:00 +8°C° 0 mm 3 m/s 759 mmHg 47%
    13:00 +8°C° 0 mm 4 m/s 759 mmHg 47%
    14:00 +9°C° 0 mm 3 m/s 758 mmHg 50%
    15:00 +9°C° 0 mm 3 m/s 758 mmHg 53%
    16:00 +8°C° 0 mm 2 m/s 758 mmHg 56%
    17:00 +7°C° 0 mm 2 m/s 758 mmHg 61%
    18:00 +6°C° 0 mm 2 m/s 758 mmHg 65%
    19:00 +4°C° 0 mm 2 m/s 758 mmHg 70%
    20:00 +4°C° 0 mm 2 m/s 758 mmHg 71%
    21:00 +4°C° 0 mm 2 m/s 757 mmHg 72%
    22:00 +3°C° 0 mm 2 m/s 757 mmHg 73%
    23:00 +3°C° 0 mm 2 m/s 757 mmHg 72%

    26 Februarie, Marţi

    Timp Temperatura Precipitaţii Vânt Presiune Umiditate
    00:00 +3°C° 0 mm 2 m/s 756 mmHg 71%
    01:00 +3°C° 0 mm 2 m/s 756 mmHg 70%
    02:00 +3°C° 0 mm 2 m/s 756 mmHg 70%
    03:00 +3°C° 0 mm 2 m/s 755 mmHg 69%
    04:00 +3°C° 0 mm 2 m/s 755 mmHg 69%
    05:00 +2°C° 0 mm 3 m/s 755 mmHg 71%
    06:00 +2°C° 0 mm 3 m/s 754 mmHg 73%
    07:00 +2°C° 0 mm 3 m/s 754 mmHg 74%
    08:00 +4°C° 0 mm 4 m/s 754 mmHg 68%
    09:00 +6°C° 0 mm 5 m/s 754 mmHg 62%
    10:00 +8°C° 0 mm 6 m/s 754 mmHg 56%
    11:00 +8°C° 0 mm 6 m/s 753 mmHg 56%
    12:00 +8°C° 0 mm 6 m/s 753 mmHg 56%
    13:00 +8°C° 0 mm 6 m/s 753 mmHg 55%
    14:00 +8°C° 0 mm 6 m/s 753 mmHg 60%
    15:00 +7°C° 0 mm 5 m/s 753 mmHg 64%
    16:00 +7°C° 0 mm 5 m/s 752 mmHg 69%
    17:00 +6°C° 0 mm 4 m/s 753 mmHg 74%
    18:00 +4°C° 0 mm 4 m/s 753 mmHg 79%
    19:00 +3°C° 0 mm 3 m/s 753 mmHg 84%
    20:00 +3°C° 0 mm 3 m/s 753 mmHg 86%
    21:00 +3°C° 0 mm 3 m/s 753 mmHg 88%
    22:00 +2°C° 0 mm 3 m/s 754 mmHg 90%
    23:00 +2°C° 0 mm 3 m/s 754 mmHg 90%

    27 Februarie, Miercuri

    Timp Temperatura Precipitaţii Vânt Presiune Umiditate
    00:00 +3°C° 0 mm 2 m/s 754 mmHg 91%
    01:00 +2°C° 0 mm 2 m/s 754 mmHg 92%
    02:00 +2°C° 0 mm 2 m/s 754 mmHg 91%
    03:00 +2°C° 0 mm 2 m/s 753 mmHg 91%
    04:00 +1°C° 0 mm 2 m/s 753 mmHg 90%
    05:00 +2°C° 0 mm 1 m/s 753 mmHg 88%
    06:00 +2°C° 0 mm 1 m/s 753 mmHg 87%
    07:00 +2°C° 0 mm 1 m/s 753 mmHg 85%
    08:00 +4°C° 0 mm 1 m/s 753 mmHg 75%
    09:00 +6°C° 0 mm 1 m/s 753 mmHg 65%
    10:00 +8°C° 0 mm 1 m/s 753 mmHg 56%
    11:00 +9°C° 0 mm 1 m/s 753 mmHg 49%
    12:00 +10°C° 0 mm 1 m/s 752 mmHg 42%
    13:00 +12°C° 0 mm 1 m/s 752 mmHg 35%
    14:00 +12°C° 0 mm 1 m/s 751 mmHg 37%
    15:00 +12°C° 0 mm 1 m/s 750 mmHg 40%
    16:00 +13°C° 0 mm 1 m/s 750 mmHg 42%
    17:00 +10°C° 0 mm 2 m/s 749 mmHg 48%
    18:00 +8°C° 0 mm 2 m/s 749 mmHg 54%
    19:00 +7°C° 0 mm 3 m/s 748 mmHg 60%
    20:00 +5°C° 0 mm 3 m/s 748 mmHg 60%
    21:00 +5°C° 0 mm 3 m/s 747 mmHg 61%
    22:00 +5°C° 0 mm 3 m/s 747 mmHg 61%
    23:00 +5°C° 0 mm 3 m/s 746 mmHg 62%
    Arată mai mult